Change the Weather History Date:

Sunday, April 6, 2014

  Actual Average Record
Temperature  
Mean Temperature 44 °F -  
Max Temperature 59 °F 59 °F 75 °F (1991)
Min Temperature 28 °F 31 °F 21 °F (2009)
Degree Days  
Heating Degree Days 22    
Moisture  
Dew Point 19 °F    
Average Humidity 35    
Maximum Humidity 66    
Minimum Humidity 9    
Precipitation  
Precipitation 0.00 in - - ()
Sea Level Pressure  
Sea Level Pressure 29.90 in    
Wind  
Wind Speed 11 mph (WNW)    
Max Wind Speed 31 mph    
Max Gust Speed 38 mph    
Visibility 10 miles    
Events      
Averages and records for this station are not official NWS values.
T = Trace of Precipitation, MM = Missing Value Source: NWS Daily Summary

Daily Weather History Graph

Daily Weather History Graph

Search for Another Location

Airport or City:

Trip Planner

Search our weather history database for the weather conditions in past years. The results will help you decide how hot, cold, wet, or windy it might be!

Date:

Astronomy

Apr. 06, 2014 Rise Set
Actual Time 6:51 AM MDT 7:39 PM MDT
Civil Twilight 6:25 AM MDT 8:05 PM MDT
Nautical Twilight 5:54 AM MDT 8:37 PM MDT
Astronomical Twilight 5:22 AM MDT 9:09 PM MDT
Moon 12:00 PM MDT (4/6) 1:33 AM MDT (4/6)
Length of Visible Light 13h 40m
Length of Day
12h 48m
Waxing Crescent, 44% of the Moon is Illuminated
Apr 6
Waxing Crescent
Apr 7
First Quarter
Apr 15
Full
Apr 22
Last Quarter
Apr 29
New

Hourly Weather History & Observations

Time (MDT) Temp. Windchill Dew Point Humidity Pressure Visibility Wind Dir Wind Speed Gust Speed Precip Events Conditions
12:53 AM 39.9 °F 35.1 °F 21.0 °F 47% 29.88 in 10.0 mi Variable 6.9 mph - N/A   Clear
1:53 AM 35.1 °F 32.2 °F 19.9 °F 54% 29.90 in 10.0 mi Variable 3.5 mph - N/A   Clear
2:53 AM 36.0 °F 32.1 °F 21.0 °F 55% 29.87 in 10.0 mi West 4.6 mph - N/A   Clear
3:53 AM 34.0 °F 31.0 °F 21.0 °F 59% 29.88 in 10.0 mi WSW 3.5 mph - N/A   Clear
4:53 AM 32.0 °F 28.7 °F 19.9 °F 61% 29.88 in 10.0 mi WNW 3.5 mph - N/A   Clear
5:53 AM 30.0 °F - 19.0 °F 64% 29.91 in 10.0 mi Calm Calm - N/A   Clear
6:53 AM 32.0 °F 26.4 °F 21.9 °F 66% 29.91 in 10.0 mi West 5.8 mph - N/A   Clear
7:53 AM 37.0 °F 30.4 °F 24.1 °F 59% 29.92 in 10.0 mi WSW 9.2 mph - N/A   Clear
8:53 AM 43.0 °F 35.7 °F 25.0 °F 49% 29.92 in 10.0 mi West 15.0 mph - N/A   Clear
9:53 AM 46.9 °F - 26.1 °F 44% 29.91 in 10.0 mi West 24.2 mph 28.8 mph N/A   Clear
10:53 AM 51.1 °F - 26.1 °F 38% 29.90 in 10.0 mi West 21.9 mph 32.2 mph N/A   Clear
11:53 AM 54.0 °F - 21.9 °F 29% 29.88 in 10.0 mi NW 17.3 mph 32.2 mph N/A   Partly Cloudy
12:53 PM 55.0 °F - 19.9 °F 25% 29.86 in 10.0 mi West 31.1 mph 36.8 mph N/A   Partly Cloudy
1:53 PM 55.9 °F - 17.1 °F 22% 29.86 in 10.0 mi West 26.5 mph 35.7 mph N/A   Partly Cloudy
2:53 PM 57.0 °F - 18.0 °F 22% 29.84 in 10.0 mi WNW 24.2 mph 38.0 mph N/A   Clear
3:53 PM 57.9 °F - 15.1 °F 19% 29.83 in 10.0 mi NNW 20.7 mph 33.4 mph N/A   Partly Cloudy
4:53 PM 55.9 °F - 14.0 °F 19% 29.86 in 10.0 mi WNW 20.7 mph 33.4 mph N/A   Scattered Clouds
5:53 PM 57.0 °F - 15.1 °F 19% 29.87 in 10.0 mi NNW 23.0 mph 31.1 mph N/A   Scattered Clouds
6:53 PM 54.0 °F - 10.0 °F 17% 29.88 in 10.0 mi NW 25.3 mph 32.2 mph N/A   Clear
7:53 PM 51.1 °F - 9.0 °F 18% 29.89 in 10.0 mi NW 18.4 mph 25.3 mph N/A   Clear
8:53 PM 48.9 °F - 10.9 °F 22% 29.92 in 10.0 mi NW 11.5 mph - N/A   Clear
9:53 PM 46.9 °F - 14.0 °F 27% 29.94 in 10.0 mi North 12.7 mph - N/A   Clear
10:53 PM 43.0 °F 38.8 °F 18.0 °F 37% 29.97 in 10.0 mi NNE 6.9 mph - N/A   Clear
11:53 PM 42.1 °F - 21.9 °F 45% 29.99 in 10.0 mi Calm Calm - N/A   Partly Cloudy